Location: Borotín
(49.5055°N, 14.6142°E)
Time: 11:20:34
(UTC+00:00)

Cosmos 2154 Rocket - Pass Details

Date: 27 May 2022
Orbit: 966 x 996 km, 82.9° (Epoch: 26 June)

Event Time Altitude Azimuth Distance (km) Brightness Sun altitude
Rises 01:22:13 0° 348° (NNW) 3,728 7.8 -12.4°
Reaches altitude 10° 01:24:46 10° 346° (NNW) 2,772 7.0 -12.1°
Maximum altitude 01:31:03 66° 266° (W) 1,078 4.1 -11.6°
Drops below altitude 10° 01:37:16 10° 186° (S) 2,737 5.8 -11.0°
Enters shadow 01:37:42 - 185° (S) 2,899 6.0 -10.9°
